Regional Weather Roundup
Issued by NWS

Home | Current Version | Previous Version | Text Only | Print | Product List | Glossary On
Versions: 1 2 3 4 5 6 7 8 9 10 11 12 13 14 15 16 17 18 19 20 21 22 23 24 25 26 27 28 29 30 31 32 33 34 35 36 37 38 39 40 41 42 43 44 45 46 47 48 49 50
000
ASUS45 KBOU 261207
RWRCO

WEATHER ROUNDUP FOR COLORADO
NATIONAL WEATHER SERVICE DENVER/BOULDER CO
500 AM MST MON JAN 26 2015

NOTE: "FAIR" INDICATES FEW OR NO CLOUDS BELOW 12000 FEET WITH NO
SIGNIFICANT WEATHER AND/OR OBSTRUCTIONS TO VISIBILITY.

COZ001>005-013-030-031-261300-
...NORTHWEST COLORADO...

CITY           SKY/WX    TMP DP  RH WIND       PRES   REMARKS
CRAIG          PTCLDY    13  10  88 CALM      30.45R
HAYDEN         PTCLDY    23  18  80 E12       30.42R WCI  12
MEEKER         PTCLDY    15  10  80 CALM      30.44R
MOUNT WERNER   NOT AVBL
STEAMBOAT SPGS PTCLDY    17  15  93 CALM      30.44R
WALDEN         PTCLDY    19  18  93 E9        30.43S WCI   9
$$

COZ006>008-011-261300-
...WEST CENTRAL VALLEYS...

CITY           SKY/WX    TMP DP  RH WIND       PRES   REMARKS
GRAND JUNCTION PTCLDY    28  21  75 CALM      30.40R
MONTROSE       CLEAR     23  19  85 SE5       30.43R WCI  17
EAGLE          PTCLDY    18  18 100 CALM      30.51R
RIFLE          PTCLDY    23  19  85 SE3       30.44R
DELTA          CLEAR     25  21  84 NW6       30.43R WCI  18
NUCLA          CLEAR     30  23  74 E8        30.41S WCI  23
$$

COZ017>023-064>068-261300-
...SOUTHWEST COLORADO...

CITY           SKY/WX    TMP DP  RH WIND       PRES   REMARKS
DURANGO        PTCLDY    23  20  88 E3        30.38S
CORTEZ         CLEAR     21  18  88 E3        30.38R
PAGOSA SPRINGS PTCLDY    22  20  90 CALM      30.42S
TELLURIDE      PTCLDY    33  15  48 E7        30.45R WCI  27
WOLF CREEK PAS NOT AVBL
$$

COZ009-010-012-014-032>034-037-058>063-261300-
...CENTRAL COLORADO...

CITY           SKY/WX    TMP DP  RH WIND       PRES   REMARKS
ASPEN          CLEAR     18  13  80 CALM      30.42R
BUENA VISTA    CLEAR     30  19  63 CALM      30.40S
COPPER MTN     PTCLDY    34  10  37 W12       30.53S WCI  25
BERTHOUD PASS  FAIR      19  14  79 N5        30.53R WCI  13
COTTONWOOD PAS CLEAR     45   9  23 W8        30.43S
GUNNISON       PTCLDY     0  -6  78 CALM      30.53R
KREMMLING      FOG      N/A N/A N/A CALM      30.52R VSB 1/4
LEADVILLE      CLEAR     22  14  71 N6        30.46R WCI  14
MONARCH PASS   CLEAR     32  12  43 SW9       30.63R WCI  24
SALIDA         CLEAR     30  21  69 CALM      30.47S
SUNLIGHT       CLEAR     34  19  55 CALM        N/A
WILKERSON PASS CLEAR     36  10  35 N12G26    30.50R
$$

COZ069>075-261300-
...SAN LUIS VALLEY/SANGRE DE CRISTO MOUNTAINS...

CITY           SKY/WX    TMP DP  RH WIND       PRES   REMARKS
ALAMOSA        PTCLDY     9   4  80 CALM      30.41R
LA VETA PASS   NOT AVBL
SAGUACHE       PTCLDY    21  14  73 E3        30.42R
$$

COZ035-036-038>040-261300-
...NORTHERN COLORADO FRONT RANGE...

CITY           SKY/WX    TMP DP  RH WIND       PRES   REMARKS
DENVER INTL AP PTCLDY    39  24  55 S7        30.20S
DMNS CITY PARK   N/A     38  22  52 E3        30.23R
AURORA         PTCLDY    40  23  49 S13       30.23R
FRONT RANGE AP NOT AVBL
ERIE MUNI ARPT PTCLDY    32  26  78 CALM      30.21R
BOULDER MUN AP PTCLDY    37  23  56 W3        30.21R
CENTENNIAL     PTCLDY    38  23  55 SE8       30.23R
BROOMFIELD     PTCLDY    45  23  42 CALM      30.22R
FORT COLLINS   MOCLDY    36  25  64 S7        30.20S
LONGMONT       MOCLDY    31  24  77 W5        30.22R WCI  26
$$

COZ041-046-047-076>085-087-088-261300-
...PIKES PEAK/PALMER DIVIDE AND SOUTHERN FOOTHILLS...

CITY           SKY/WX    TMP DP  RH WIND       PRES   REMARKS
COLO. SPRINGS  PTCLDY    38  22  52 NW8       30.27R
A. F. ACADEMY  CLEAR     30  22  71 NE9       30.26S WCI  22
ELLICOTT       CLEAR    N/A N/A N/A NE7       30.25S
FALCON         CLEAR     36  21  55 NW8       30.29R
FORT CARSON    CLEAR     42  22  44 W5        30.24S
LIMON          CLEAR     35  25  66 W14       30.21S WCI  26
MONUMENT HILL  CLEAR     32  21  64 SW9       30.27S WCI  24
TRINIDAD       PTCLDY    36  23  59 SW15      30.27S
$$

COZ042>045-048>051-090-091-261300-
...NORTHEAST COLORADO...

CITY           SKY/WX    TMP DP  RH WIND       PRES   REMARKS
GREELEY ARPT   MOCLDY    28  21  74 CALM      30.18R
AKRON          MOCLDY    36  28  73 W14       30.16R
BURLINGTON     CLEAR     35  28  75 W10       30.15R WCI  27
WRAY           CLEAR     40  31  68 W15       30.12R
STERLING       MOCLDY    46  32  57 NW14      30.13R
HOLYOKE        CLEAR     43  30  61 W13G18    30.10R
FORT MORGAN    MOCLDY    32  27  81 W10       30.17S WCI  24
$$

COZ086-089-092>099-261300-
...SOUTHEAST COLORADO...

CITY           SKY/WX    TMP DP  RH WIND       PRES   REMARKS
PUEBLO         PTCLDY    25  23  92 W5        30.23S WCI  19
LA JUNTA       PTCLDY    35  27  72 W17       30.20S WCI  25
LAMAR          CLEAR     34  29  82 W8        30.18S WCI  27
SPRINGFIELD      N/A     38  28  67 W14       30.18S
$$


USA.gov is the U.S. government's official web portal to all federal, state and local government web resources and services.